User: anonymous   Login
Location: Ottawa
(45.4170°N, 75.7000°W)
Time: 19:38:53
(UTC-04:00)
Language:

Aureole 3 Rocket - Orbit

View from above orbital plane
View from above orbital plane
View from above satellite
View from above satellite

Ground track
Ground track

The orbit data is extracted from the following two-line orbital elements,

1 12849U 81094B   14302.75122021  .00001747  00000-0  15985-3 0   278
2 12849 082.4946 183.8145 0911735 117.6835 251.9825 13.48402294612251
Epoch (UTC): 29 October 2014 18:01:45
Eccentricity: 0.0911735
inclination: 82.4946°
perigee height: 398 km
apogee height: 1758 km
right ascension of ascending node: 183.8145°
argument of perigee: 117.6835°
revolutions per day: 13.48402294
mean anomaly at epoch: 251.9825°
orbit number at epoch: 61225

The dashed part of the orbit path shows where the satellite is in the earth's shadow,  

DLR